This demonstration page uses our WeatherBlox Daily Observations layout. Learn more.

Left ArrowRight Arrow

Hourly Observations for October 13, 2015

Temp ( °F °C ) Dew Point ( °F °C ) Humidity (%) Winds ( mph kmh ) Pressure ( in mb ) Visibility ( mi km ) Precip ( " mm )
12:53 am 00:53 Clear 61 16.1 56 13.3 84 84 W 3 6 29.80 1009 10 16 0.00 0.00
1:53 am 01:53 Mostly Cloudy 62 16.7 56 13.3 80 80 SSW 6 9 29.78 1008 10 16 0.00 0.00
2:53 am 02:53 Cloudy with Light Rain 62 16.7 57 13.9 84 84 SSW 3 6 29.78 1009 10 16 0.14 3.56
3:30 am 03:30 Cloudy with Nearby Thunderstorms 61 16 57 14 88 88 Calm 29.83 1010 10 16 0.00 0.00
3:45 am 03:45 Mostly Cloudy 61 16.1 58 14.4 90 90 SSE 5 7 29.80 1009 10 16 0.00 0.03
3:53 am 03:53 Mostly Cloudy with Light Rain 61 16.1 59 15 93 93 SSE 5 7 29.78 1009 10 16 0.00 0.03
4:53 am 04:53 Cloudy 61 16.1 58 14.4 90 90 S 6 9 29.78 1008 10 16 0.01 0.25
5:53 am 05:53 Mostly Cloudy with Light Rain 61 16.1 58 14.4 90 90 Calm 29.78 1008 10 16 0.00 0.03
6:53 am 06:53 Cloudy 62 16.7 58 14.4 86 86 SW 3 6 29.78 1009 10 16 0.00 0.03
7:53 am 07:53 Mostly Cloudy 62 16.7 59 15 90 90 SSW 7 11 29.80 1009 10 16 0.00 0.00
8:53 am 08:53 Mostly Cloudy 63 17.2 59 15 87 87 SW 7 11 29.81 1009 10 16 0.00 0.00
9:32 am 09:32 Mostly Sunny 64 18 59 15 83 83 SW 9 15 29.83 1010 10 16 0.00 0.00
9:53 am 09:53 Partly Cloudy 65 18.3 60 15.6 84 84 SSW 7 11 29.83 1010 10 16 0.00 0.00
10:53 am 10:53 Cloudy 69 20.6 61 16.1 76 76 W 7 11 29.84 1010 10 16 0.00 0.00
11:53 am 11:53 Partly Cloudy 71 21.7 61 16.1 71 71 W 10 17 29.84 1011 10 16 0.00 0.00
12:53 pm 12:53 Partly Cloudy 74 23.3 60 15.6 62 62 VRB 3 6 29.84 1010 10 16 0.00 0.00
1:53 pm 13:53 Sunny 77 25 57 13.9 50 50 W 9 15 29.81 1010 10 16 0.00 0.00
2:53 pm 14:53 Sunny 80 26.7 54 12.2 41 41 WNW 12 19 29.79 1009 10 16 0.00 0.00
3:53 pm 15:53 Sunny 80 26.7 51 10.6 37 37 W 10 17 29.79 1009 10 16 0.00 0.00
4:53 pm 16:53 Sunny 80 26.7 49 9.4 34 34 WNW 10 17 29.79 1009 10 16 0.00 0.00
5:53 pm 17:53 Sunny 79 26.1 50 10 36 36 W 13 20 29.79 1009 10 16 0.00 0.00
6:53 pm 18:53 Sunny 75 23.9 53 11.7 46 46 W 6 9 29.80 1009 10 16 0.00 0.00
7:53 pm 19:53 Clear 66 18.9 56 13.3 70 70 NW 3 6 29.83 1010 10 16 0.00 0.00
8:53 pm 20:53 Clear 66 18.9 54 12.2 65 65 Calm 29.85 1011 10 16 0.00 0.00
9:53 pm 21:53 Clear 63 17.2 54 12.2 73 73 Calm 29.87 1012 10 16 0.00 0.00
10:53 pm 22:53 Clear 58 14.4 53 11.7 84 84 Calm 29.89 1012 10 16 0.00 0.00
11:53 pm 23:53 Clear 60 15.6 49 9.4 67 67 Calm 29.91 1013 10 16 0.00 0.00

Powered by AerisWeather